Location: Caltech
(34.1382°N, 118.1253°W)
Time: 06:32:14
(UTC-07:00)

ALOS - Visible Passes

Search period start: 29 September 2016 00:00
Search period end: 09 October 2016 00:00
Orbit: 684 x 687 km, 97.9° (Epoch: 29 September)

Date Brightness Start Highest point End Pass type
(mag) Time Alt. Az. Time Alt. Az. Time Alt. Az.
29 Sep 2.5 19:59:05 27° SE 20:01:17 47° ENE 20:05:45 10° N visible
29 Sep 5.0 21:37:38 13° WSW 21:38:55 14° W 21:41:18 10° WNW visible
30 Sep 4.2 19:00:52 10° E 19:02:01 11° ENE 19:03:09 10° NE visible
30 Sep 2.6 20:37:21 41° SSW 20:38:51 65° W 20:43:29 10° NNW visible
01 Oct 3.2 19:37:03 19° ESE 19:39:15 27° ENE 19:43:10 10° NNE visible
01 Oct 4.3 21:15:36 22° WSW 21:16:36 24° W 21:20:23 10° NW visible
02 Oct 2.1 20:15:19 44° SE 20:16:42 71° ENE 20:21:22 10° N visible
03 Oct 3.8 19:15:02 12° E 19:17:18 16° ENE 19:20:08 10° NNE visible
03 Oct 3.3 20:53:36 39° SW 20:54:20 42° W 20:58:46 10° NNW visible
04 Oct 2.7 19:53:18 32° ESE 19:54:37 40° ENE 19:58:59 10° N visible
04 Oct 4.8 21:31:52 16° W 21:32:11 16° W 21:35:04 10° NW visible
05 Oct 2.3 20:31:34 66° SSW 20:32:09 76° W 20:36:50 10° NNW visible
06 Oct 3.4 19:31:17 21° E 19:32:36 23° ENE 19:36:17 10° NNE visible
06 Oct 4.1 21:09:50 28° W 21:09:52 28° W 21:13:53 10° NW visible
07 Oct 2.2 20:09:33 57° ESE 20:10:01 61° ENE 20:14:37 10° N visible
07 Oct 5.3 21:48:06 10° W 21:48:06 10° W 21:48:33 10° W visible
08 Oct 3.9 19:09:16 12° E 19:10:39 14° ENE 19:13:02 10° NE visible
08 Oct 3.1 20:47:49 49° W 20:47:49 49° W 20:52:10 10° NNW visible
